Location: Chuathbaluk
(61.5726°N, 159.2454°W)
Time: 04:03:35
(UTC+00:00)

Transit 2A - Pass Details

Date: 27 November 2020
Orbit: 599 x 960 km, 66.7° (Epoch: 26 January)

Event Time Altitude Azimuth Distance (km) Brightness Sun altitude
Rises 11:47:38 0° 306° (NW) 3,448 - -47.2°
Reaches altitude 10° 11:50:14 10° 305° (NW) 2,454 - -47.1°
Maximum altitude 11:55:50 70° 223° (SW) 824 - -46.7°
Drops below altitude 10° 12:00:50 10° 140° (SE) 2,199 - -46.4°
Sets 12:03:04 0° 138° (SE) 3,063 - -46.2°
